EW3919 Weather Reports


time (UTC)temp
F
wind
direction
speed
knots
gust
knots
rain 1hr
in
rain 24hr
in
rain mn
in
humidity
%
barometer
mb
20260507135516 68 0.0 0.0 0.09 0.63 0.62 90 1011.0
20260507135036 68 0.0 0.0 0.11 0.63 0.62 90 1010.9
20260507134516 68 0.0 0.0 0.10 0.62 0.61 90 1011.0
20260507134056 68 0.0 0.0 0.10 0.62 0.61 90 1011.3
20260507133536 68 0.0 0.0 0.09 0.61 0.60 90 1011.5
20260507133016 68 0.0 0.0 0.10 0.61 0.60 90 1011.4
20260507132516 68 0.0 0.0 0.10 0.61 0.60 90 1011.1
20260507132036 68 0.0 0.0 0.11 0.61 0.60 90 1011.1
20260507131516 68 0.0 0.0 0.10 0.59 0.58 90 1010.9
20260507131035 68 0.0 0.0 0.10 0.58 0.57 90 1011.1
20260507130516 68 0.0 0.0 0.09 0.56 0.55 90 1011.4
20260507130036 68 0.0 0.0 0.08 0.55 0.54 90 1011.6
20260507125516 68 0.0 0.0 0.08 0.54 0.53 90 1011.7
20260507125036 68 0.0 1.7 0.07 0.52 0.51 90 1011.5
20260507124516 68 0.0 4.3 0.07 0.52 0.51 90 1011.2
20260507124016 68 0.0 0.9 0.07 0.52 0.51 90 1011.2
20260507123516 68 0.0 0.0 0.07 0.52 0.51 90 1011.2
20260507123036 68 0.0 0.0 0.07 0.51 0.50 90 1011.2
20260507122515 68 0.0 0.0 0.07 0.51 0.50 90 1011.3
20260507122035 68 203 0.9 7.8 0.07 0.50 0.49 90 1011.5
20260507121515 68 0.0 0.9 0.06 0.49 0.48 90 1011.4
20260507121016 68 0.0 3.5 0.05 0.48 0.47 90 1011.5
20260507120516 68 0.0 0.0 0.04 0.47 0.46 90 1011.3
20260507120015 68 203 0.9 9.6 0.04 0.47 0.46 90 1010.9
20260507115516 68 0.0 0.9 0.03 0.46 0.45 90 1011.0
20260507115016 68 0.0 0.0 0.02 0.45 0.44 90 1010.9
20260507114515 68 0.0 4.3 0.02 0.45 0.44 90 1010.9
20260507114015 68 203 1.7 12.2 0.04 0.45 0.44 90 1010.8
20260507113516 68 0.0 9.6 0.04 0.45 0.44 90 1010.9
20260507113016 68 225 2.6 14.8 0.03 0.44 0.43 90 1010.8
20260507112538 68 225 1.7 11.3 0.04 0.44 0.43 90 1011.2
20260507112018 68 225 1.7 9.6 0.04 0.43 0.42 90 1011.0
20260507111518 68 203 0.9 8.7 0.04 0.43 0.42 90 1011.2
20260507111017 67 225 1.7 10.4 0.05 0.43 0.42 90 1010.9
20260507110518 67 0.0 5.2 0.06 0.43 0.42 90 1010.0
20260507110018 67 225 1.7 14.8 0.08 0.43 0.42 90 1009.9
20260507105517 67 225 2.6 8.7 0.10 0.43 0.42 90 1009.5
20260507105017 67 203 1.7 8.7 0.10 0.43 0.42 90 1009.5
20260507104518 67 113 4.3 16.5 0.10 0.43 0.42 90 1008.7
20260507104017 67 135 2.6 13.9 0.08 0.41 0.41 90 1008.7
20260507103517 67 135 0.9 12.2 0.08 0.41 0.40 90 1010.1
20260507103018 67 0.0 0.0 0.08 0.41 0.40 90 1011.1
20260507102519 67 0.0 0.0 0.07 0.40 0.39 90 1011.2
20260507102017 67 0.0 0.0 0.06 0.39 0.38 90 1011.3
20260507101518 67 0.0 0.0 0.06 0.39 0.38 90 1011.3
20260507101017 67 0.0 0.0 0.05 0.38 0.37 90 1011.2
20260507100538 67 0.0 0.0 0.04 0.37 0.36 90 1012.4
20260507100017 67 0.0 0.0 0.02 0.35 0.34 90 1012.8
20260507095518 67 0.0 0.0 0.00 0.33 0.32 90 1012.6
20260507095018 67 0.0 0.0 0.00 0.33 0.32 90 1012.2
20260507094517 67 0.0 0.0 0.00 0.33 0.32 90 1012.0
20260507094017 67 0.0 0.0 0.00 0.33 0.32 90 1012.2
20260507093517 67 0.0 0.0 0.00 0.33 0.32 90 1012.3
20260507093037 67 0.0 0.0 0.00 0.33 0.32 90 1012.5
20260507092517 67 0.0 0.0 0.00 0.33 0.32 90 1012.7
20260507092017 67 0.0 0.0 0.00 0.33 0.32 90 1012.8
20260507091557 67 0.0 0.0 0.00 0.33 0.32 90 1012.8
20260507091017 67 0.0 0.0 0.00 0.33 0.32 90 1012.7
20260507090517 67 0.0 0.0 0.00 0.33 0.32 90 1012.5
20260507090017 67 0.0 0.0 0.00 0.33 0.32 90 1012.6
20260507085517 67 0.0 0.0 0.00 0.33 0.32 90 1012.3
20260507085017 67 0.0 0.0 0.01 0.33 0.32 90 1012.3
20260507084518 67 0.0 0.0 0.01 0.33 0.32 90 1012.3
20260507084118 68 0.0 0.0 0.03 0.33 0.32 90 1012.2
20260507083518 68 0.0 0.0 0.05 0.33 0.32 90 1012.1
20260507083037 68 0.0 0.0 0.06 0.33 0.32 90 1012.1
20260507082517 68 0.0 0.0 0.06 0.33 0.32 90 1012.1
20260507082017 68 0.0 0.0 0.06 0.33 0.32 90 1012.3
20260507081517 68 0.0 0.0 0.07 0.33 0.32 90 1012.2
20260507081017 68 0.0 0.0 0.08 0.33 0.32 90 1012.1
20260507080517 68 0.0 0.0 0.09 0.33 0.32 90 1011.9
20260507080038 68 0.0 0.0 0.09 0.33 0.32 90 1011.6
20260507075517 68 0.0 0.0 0.11 0.33 0.32 90 1011.2
20260507075017 68 0.0 0.0 0.11 0.32 0.31 90 1011.8
20260507074517 68 0.0 0.0 0.12 0.32 0.31 89 1011.2
20260507074017 68 0.0 0.0 0.12 0.30 0.29 90 1012.3
20260507073517 68 225 2.6 10.4 0.11 0.28 0.27 89 1012.8
20260507073017 68 203 1.7 8.7 0.10 0.27 0.26 89 1012.4
20260507072517 68 203 1.7 6.1 0.11 0.27 0.26 89 1012.1
20260507072017 68 225 2.6 7.0 0.12 0.27 0.26 89 1012.1
20260507071517 68 113 0.9 5.2 0.11 0.26 0.25 89 1012.7
20260507071017 68 203 4.3 9.6 0.11 0.25 0.24 89 1013.2
20260507070517 68 225 1.7 7.8 0.11 0.24 0.23 89 1012.9
20260507070037 68 225 0.9 6.1 0.12 0.24 0.23 89 1012.7
20260507065517 69 0.0 0.0 0.10 0.22 0.21 89 1012.7
20260507065017 69 0.0 0.0 0.10 0.21 0.20 89 1012.4
20260507064517 69 0.0 0.0 0.10 0.20 0.19 89 1012.9
20260507064037 69 0.0 0.0 0.10 0.18 0.17 89 1013.1
20260507063517 69 0.0 0.0 0.10 0.17 0.16 89 1013.2
20260507063017 69 0.0 0.0 0.10 0.17 0.16 89 1013.1
20260507062537 69 0.0 0.9 0.10 0.16 0.15 89 1013.1
20260507062017 69 0.0 0.0 0.10 0.15 0.14 89 1013.4
20260507061517 69 0.0 0.0 0.10 0.15 0.14 89 1013.5
20260507061016 69 0.0 1.7 0.10 0.14 0.13 89 1013.6
20260507060517 69 0.0 0.9 0.10 0.13 0.12 89 1013.7
20260507060017 69 0.0 0.0 0.09 0.12 0.11 88 1013.8
20260507055517 69 0.0 2.6 0.09 0.12 0.11 88 1013.5
20260507055037 69 0.0 4.3 0.08 0.11 0.10 88 1013.6
20260507054517 70 0.0 7.0 0.08 0.10 0.09 88 1013.5
20260507054017 70 0.0 6.1 0.06 0.08 0.07 88 1013.5
20260507053517 70 225 0.9 6.1 0.05 0.07 0.06 88 1013.5
20260507053017 70 0.0 2.6 0.06 0.07 0.06 88 1013.7
20260507052517 70 203 0.9 5.2 0.05 0.06 0.05 88 1013.9
20260507052057 70 0.0 2.6 0.04 0.05 0.04 88 1013.7
20260507051517 70 0.0 0.0 0.04 0.05 0.04 87 1013.3
20260507051017 70 0.0 4.3 0.03 0.04 0.03 87 1013.3
20260507050517 70 0.0 0.0 0.02 0.03 0.02 87 1013.3
20260507050017 70 0.0 2.6 0.02 0.03 0.02 87 1012.9
20260507045517 70 0.0 0.0 0.02 0.03 0.02 87 1012.7
20260507045017 71 0.0 4.3 0.02 0.03 0.02 86 1012.9
20260507044537 71 0.0 0.0 0.02 0.02 0.01 86 1012.9
20260507044017 71 0.0 0.0 0.02 0.02 0.01 85 1013.2
20260507043517 71 0.0 0.0 0.02 0.02 0.01 84 1013.5
20260507043017 72 0.0 0.0 0.01 0.01 0.00 84 1013.3
20260507042516 72 0.0 0.0 0.01 0.01 0.00 83 1013.2
20260507042017 72 0.0 0.0 0.01 0.01 0.00 82 1012.8
20260507041517 72 0.0 0.0 0.01 0.01 0.00 82 1012.8
20260507041016 72 0.0 0.0 0.01 0.01 0.00 82 1013.0
20260507040536 72 0.0 0.0 0.01 0.01 0.00 81 1013.2
20260507040016 73 0.0 0.0 0.01 0.01 0.01 80 1013.7
20260507035516 73 0.0 6.1 0.01 0.01 0.01 80 1013.6
20260507035036 73 203 1.7 11.3 0.01 0.01 0.01 79 1013.5
20260507034516 74 0.0 0.0 0.00 0.00 0.00 77 1013.8
20260507034037 75 0.0 0.0 0.00 0.00 0.00 76 1014.1
20260507033516 75 0.0 4.3 0.00 0.00 0.00 74 1014.2
20260507033016 75 0.0 0.0 0.00 0.00 0.00 74 1014.4
20260507032516 76 0.0 0.0 0.00 0.00 0.00 72 1014.3
20260507032016 76 0.0 0.0 0.00 0.00 0.00 71 1014.2
20260507031516 77 0.0 0.0 0.00 0.00 0.00 70 1014.0
20260507031016 77 0.0 0.0 0.00 0.00 0.00 68 1013.6
20260507030516 77 0.0 0.0 0.00 0.00 0.00 69 1013.7
20260507030016 77 0.0 0.0 0.00 0.00 0.00 67 1013.7
20260507025516 77 0.0 0.0 0.00 0.00 0.00 67 1013.4
20260507025016 78 0.0 0.0 0.00 0.00 0.00 67 1013.3
20260507024536 78 0.0 0.0 0.00 0.00 0.00 66 1013.4
20260507024016 78 0.0 0.0 0.00 0.00 0.00 66 1013.5
20260507023516 78 0.0 0.0 0.00 0.00 0.00 66 1013.6
20260507023016 78 0.0 0.0 0.00 0.00 0.00 66 1013.6
20260507022536 78 0.0 0.0 0.00 0.00 0.00 66 1013.5
20260507022016 78 0.0 0.0 0.00 0.00 0.00 66 1013.5
20260507021516 78 0.0 0.0 0.00 0.00 0.00 66 1013.3
20260507021016 78 0.0 0.0 0.00 0.00 0.00 66 1012.9
20260507020515 78 0.0 0.0 0.00 0.00 0.00 65 1012.8
20260507020016 79 0.0 1.7 0.00 0.00 0.00 65 1012.9
20260507015516 79 0.0 0.0 0.00 0.00 0.00 64 1013.1
20260507015016 79 0.0 0.0 0.00 0.00 0.00 64 1013.1
20260507014515 79 0.0 2.6 0.00 0.00 0.00 64 1013.1
20260507014016 79 0.0 0.0 0.00 0.00 0.00 64 1012.9
20260507013516 79 0.0 4.3 0.00 0.00 0.00 64 1013.0
20260507013036 79 0.0 0.0 0.00 0.00 0.00 63 1012.9
20260507012516 79 0.0 3.5 0.00 0.00 0.00 63 1013.1
20260507012016 80 0.0 0.0 0.00 0.00 0.00 63 1013.1
20260507011536 80 0.0 5.2 0.00 0.00 0.00 63 1013.1
20260507011016 80 0.0 3.5 0.00 0.00 0.00 63 1013.3
20260507010516 80 0.0 0.0 0.00 0.00 0.00 63 1013.4
20260507010016 80 0.0 0.9 0.00 0.00 0.00 62 1013.3
20260507005516 80 0.0 0.9 0.00 0.00 0.00 62 1013.3
20260507005016 80 203 0.9 6.1 0.00 0.00 0.00 62 1013.1
20260507004516 80 0.0 2.6 0.00 0.00 0.00 62 1012.8
20260507004016 80 0.0 3.5 0.00 0.00 0.00 63 1013.0
20260507003516 81 0.0 0.0 0.00 0.00 0.00 62 1013.0
20260507003016 81 0.0 0.0 0.00 0.00 0.00 62 1013.1
20260507002516 81 0.0 0.0 0.00 0.00 0.00 62 1012.7
20260507002015 81 0.0 0.0 0.00 0.00 0.00 62 1012.7
20260507001515 81 203 0.9 7.0 0.00 0.00 0.00 62 1012.8
20260507001016 81 0.0 0.0 0.00 0.00 0.00 62 1013.2
20260507000538 81 0.0 3.5 0.00 0.00 0.00 62 1012.9
20260507000018 82 0.0 3.5 0.00 0.00 0.00 61 1012.3
20260506235518 82 0.0 4.3 0.00 0.00 0.00 61 1012.4
20260506235017 82 203 0.9 8.7 0.00 0.00 0.00 60 1012.4
20260506234518 82 0.0 3.5 0.00 0.00 0.00 61 1012.5
20260506234017 82 0.0 7.0 0.00 0.00 0.00 60 1012.0
20260506233517 82 225 0.9 5.2 0.00 0.00 0.00 60 1012.3
20260506233017 83 0.0 0.0 0.00 0.00 0.00 61 1012.5
20260506232538 83 0.0 0.0 0.00 0.00 0.00 61 1012.7
20260506232017 83 0.0 0.0 0.00 0.00 0.00 61 1013.0
20260506231517 83 0.0 0.0 0.00 0.00 0.00 60 1013.1
20260506231017 83 0.0 4.3 0.00 0.00 0.00 60 1013.1
20260506230517 83 225 0.9 8.7 0.00 0.00 0.00 59 1013.3
20260506230017 83 0.0 9.6 0.00 0.00 0.00 59 1013.2
20260506225538 83 225 1.7 11.3 0.00 0.00 0.00 58 1012.8
20260506225017 84 203 0.9 7.0 0.00 0.00 0.00 57 1012.7
20260506224537 84 225 0.9 7.8 0.00 0.00 0.00 57 1012.8
20260506224018 84 0.0 0.9 0.00 0.00 0.00 57 1012.6
20260506223517 84 0.0 0.0 0.00 0.00 0.00 56 1012.6
20260506223018 85 0.0 0.0 0.00 0.00 0.00 57 1012.8
20260506222517 85 0.0 0.0 0.00 0.00 0.00 57 1013.1
20260506222017 85 0.0 4.3 0.00 0.00 0.00 56 1012.9
20260506221517 85 203 1.7 7.8 0.00 0.00 0.00 56 1012.8
20260506221018 85 225 1.7 8.7 0.00 0.00 0.00 56 1012.8
20260506220517 85 0.0 0.0 0.00 0.00 0.00 56 1012.8
20260506220017 85 0.0 0.0 0.00 0.00 0.00 56 1012.8
20260506215517 85 0.0 0.0 0.00 0.00 0.00 56 1012.7
20260506215037 86 225 0.9 7.0 0.00 0.00 0.00 56 1012.7
20260506214517 86 203 0.9 10.4 0.00 0.00 0.00 56 1012.6
20260506214017 86 0.0 3.5 0.00 0.00 0.00 55 1012.7
20260506213517 86 0.0 3.5 0.00 0.00 0.00 55 1012.7
20260506213017 86 203 0.9 13.9 0.00 0.00 0.00 56 1012.8
20260506212517 86 203 0.9 7.0 0.00 0.00 0.00 55 1012.9
20260506212017 86 0.0 2.6 0.00 0.00 0.00 55 1012.9
20260506211517 86 0.0 3.5 0.00 0.00 0.00 55 1013.3
20260506211017 86 248 0.9 7.8 0.00 0.00 0.00 55 1013.2
20260506210537 86 225 0.9 8.7 0.00 0.00 0.00 54 1013.2
20260506210017 86 225 1.7 10.4 0.00 0.00 0.00 52 1013.3
20260506205517 86 203 0.9 13.0 0.00 0.00 0.00 53 1013.3
20260506205017 87 225 0.9 7.0 0.00 0.00 0.00 53 1013.5
20260506204517 87 0.0 6.1 0.00 0.00 0.00 53 1013.4
20260506204017 86 203 0.9 7.0 0.00 0.00 0.00 52 1013.4
20260506203517 86 0.0 8.7 0.00 0.00 0.00 51 1013.4
20260506203017 87 225 0.9 5.2 0.00 0.00 0.00 49 1013.6
20260506202517 87 0.0 1.7 0.00 0.00 0.00 49 1013.7
20260506202017 86 203 1.7 9.6 0.00 0.00 0.00 52 1013.8
20260506201517 86 180 2.6 7.8 0.00 0.00 0.00 50 1014.0
20260506201017 87 225 0.9 8.7 0.00 0.00 0.00 47 1014.2
20260506200517 87 225 0.9 5.2 0.00 0.00 0.00 49 1014.1
20260506200017 87 0.0 3.5 0.00 0.00 0.00 48 1014.2
20260506195517 87 225 0.9 4.3 0.00 0.00 0.00 48 1014.3
20260506195037 86 0.0 5.2 0.00 0.00 0.00 48 1014.3
20260506194517 86 203 0.9 7.8 0.00 0.00 0.00 49 1014.6
20260506194017 86 203 0.9 6.1 0.00 0.00 0.00 47 1014.7
20260506193517 86 225 0.9 11.3 0.00 0.00 0.00 47 1014.7
20260506193017 86 0.0 6.1 0.00 0.00 0.00 46 1014.7
20260506192517 87 225 1.7 8.7 0.00 0.00 0.00 47 1014.7
20260506192017 87 225 1.7 10.4 0.00 0.00 0.00 47 1014.9
20260506191537 86 0.0 3.5 0.00 0.00 0.00 50 1015.0
20260506191017 86 203 0.9 8.7 0.00 0.00 0.00 50 1014.9
20260506190517 86 225 0.9 8.7 0.00 0.00 0.00 48 1014.9
20260506190018 86 0.0 5.2 0.00 0.00 0.00 49 1015.1
20260506185516 86 0.0 3.5 0.00 0.00 0.00 48 1015.2
20260506185017 85 225 0.9 9.6 0.00 0.00 0.00 48 1015.1
20260506184517 86 225 0.9 9.6 0.00 0.00 0.00 47 1015.1
20260506184017 85 0.0 3.5 0.00 0.00 0.00 50 1015.0
20260506183517 85 0.0 4.3 0.00 0.00 0.00 50 1015.0
20260506183017 85 0.0 0.0 0.00 0.00 0.00 48 1015.0
20260506182516 85 0.0 0.0 0.00 0.00 0.00 51 1015.2
20260506182017 85 0.0 6.1 0.00 0.00 0.00 48 1015.2
20260506181517 85 0.0 1.7 0.00 0.00 0.00 51 1015.1
20260506181016 84 0.0 4.3 0.00 0.00 0.00 53 1015.1
20260506180517 84 0.0 0.0 0.00 0.00 0.00 54 1015.1
20260506180017 83 0.0 0.0 0.00 0.00 0.00 52 1015.1
20260506175517 83 225 0.9 5.2 0.00 0.00 0.00 52 1015.2
20260506175017 83 0.0 6.1 0.00 0.00 0.00 54 1015.1
20260506174537 82 203 0.9 4.3 0.00 0.00 0.00 53 1015.2
20260506174016 82 203 0.9 7.0 0.00 0.00 0.00 58 1015.5
20260506173517 82 0.0 0.0 0.00 0.00 0.00 58 1015.6
20260506173017 81 203 0.9 7.0 0.00 0.00 0.00 60 1015.6
20260506172516 81 203 0.9 7.8 0.00 0.00 0.00 61 1015.7
20260506172037 81 0.0 8.7 0.00 0.00 0.00 60 1015.8
20260506171517 80 0.0 0.0 0.00 0.00 0.00 60 1015.9
20260506171017 79 0.0 3.5 0.00 0.00 0.00 62 1015.9
20260506170516 79 203 0.9 7.0 0.00 0.00 0.00 61 1016.2
20260506170017 79 203 1.7 8.7 0.00 0.00 0.00 67 1016.3
20260506165537 79 203 0.9 7.0 0.00 0.00 0.00 67 1016.3
20260506165016 78 0.0 7.0 0.00 0.00 0.00 67 1016.4
20260506164537 77 203 0.9 7.0 0.00 0.00 0.00 68 1016.5
20260506164016 77 0.0 6.1 0.00 0.00 0.00 68 1016.7
20260506163517 77 0.0 0.9 0.00 0.00 0.00 68 1016.8
20260506163016 77 0.0 0.0 0.00 0.00 0.00 69 1016.9
20260506162517 76 0.0 7.8 0.00 0.00 0.00 69 1017.0
20260506162016 76 225 0.9 5.2 0.00 0.00 0.00 68 1017.1
20260506161517 77 0.0 5.2 0.00 0.00 0.00 69 1017.1
20260506161017 77 0.0 0.9 0.00 0.00 0.00 69 1017.2
20260506160536 77 0.0 2.6 0.00 0.00 0.00 70 1017.1
20260506160017 76 225 0.9 11.3 0.00 0.00 0.00 68 1017.1
20260506155516 76 203 0.9 4.3 0.00 0.00 0.00 69 1017.1
20260506155017 76 0.0 0.0 0.00 0.00 0.00 71 1017.2
20260506154537 76 0.0 5.2 0.00 0.00 0.00 71 1017.2
20260506154016 75 158 0.9 8.7 0.00 0.00 0.00 72 1017.3
20260506153516 75 0.0 7.0 0.00 0.00 0.00 73 1017.2
20260506153017 74 0.0 0.0 0.00 0.00 0.00 76 1017.1
20260506152517 74 0.0 4.3 0.00 0.00 0.00 77 1017.2